Hickam AFB, HI

1:18 AM HST on February 23, 2017 (GMT -1000)
Honolulu International

Weather History for PHNL - May, 2012

Change the Weather History Date:

Monday, May 14, 2012

  Actual Average Record
Temperature  
Mean Temperature 73 °F 78 °F  
Max Temperature 79 °F 84 °F 90 °F (1996)
Min Temperature 66 °F 71 °F 63 °F (1987)
Degree Days  
Heating Degree Days 0 0  
Month to date heating degree days 0 0  
Since 1 July heating degree days 0 0  
Cooling Degree Days 8 12  
Month to date cooling degree days 164 168  
Year to date cooling degree days 1340 1275  
Growing Degree Days 22 (Base 50)    
Moisture  
Dew Point 61 °F    
Average Humidity 67    
Maximum Humidity 81    
Minimum Humidity 52    
Precipitation  
Precipitation T in 0.02 in 3.23 in (1963)
Month to date precipitation 0.01 0.32  
Year to date precipitation 7.45 7.27  
Snow  
Snow 0.00 in - - ()
Month to date snowfall 0.0  
Since 1 July snowfall 0.0  
Snow Depth 0.00 in    
Sea Level Pressure  
Sea Level Pressure 30.00 in    
Wind  
Wind Speed 5 mph (South)    
Max Wind Speed 14 mph    
Max Gust Speed 18 mph    
Visibility 10 miles    
Events      
T = Trace of Precipitation, MM = Missing Value Source: NWS Daily Summary

Daily Weather History Graph

Daily Weather History Graph

Search for Another Location

Airport or City:

Trip Planner

Search our weather history database for the weather conditions in past years. The results will help you decide how hot, cold, wet, or windy it might be!

Date:

Astronomy

May. 14, 2012 Rise Set
Actual Time 5:53 AM HST 7:02 PM HST
Civil Twilight 5:29 AM HST 7:26 PM HST
Nautical Twilight 5:01 AM HST 7:54 PM HST
Astronomical Twilight 4:32 AM HST 8:24 PM HST
Moon 1:52 AM HST (5/14) 2:10 PM HST (5/14)
Length of Visible Light 13h 56m
Length of Day
13h 09m
Waning Crescent, 30% of the Moon is Illuminated
May 14
Waning Crescent
May 20
New
May 28
First Quarter
Jun 4
Full
Jun 11
Last Quarter

Hourly Weather History & Observations

Time (HST) Temp. Dew Point Humidity Pressure Visibility Wind Dir Wind Speed Gust Speed Precip Events Conditions
12:53 AM 71.1 °F 60.1 °F 68% 30.02 in 10.0 mi Calm Calm - N/A   Partly Cloudy
1:53 AM 69.1 °F 61.0 °F 75% 30.00 in 10.0 mi WNW 3.5 mph - N/A   Scattered Clouds
2:53 AM 68.0 °F 61.0 °F 78% 29.99 in 10.0 mi North 3.5 mph - N/A   Scattered Clouds
3:53 AM 68.0 °F 61.0 °F 78% 29.99 in 10.0 mi NNW 4.6 mph - N/A   Scattered Clouds
4:53 AM 66.9 °F 60.1 °F 79% 29.99 in 10.0 mi Calm Calm - N/A   Scattered Clouds
5:53 AM 66.9 °F 61.0 °F 81% 30.00 in 10.0 mi NNW 4.6 mph - N/A   Partly Cloudy
6:53 AM 69.1 °F 62.1 °F 78% 30.02 in 10.0 mi Calm Calm - N/A   Scattered Clouds
7:53 AM 73.0 °F 61.0 °F 66% 30.03 in 10.0 mi Calm Calm - 0.00 in   Scattered Clouds
8:53 AM 75.9 °F 57.9 °F 54% 30.03 in 10.0 mi East 5.8 mph - 0.00 in   Scattered Clouds
9:53 AM 75.9 °F 61.0 °F 60% 30.04 in 10.0 mi SSE 9.2 mph - N/A   Scattered Clouds
10:53 AM 78.1 °F 61.0 °F 56% 30.02 in 10.0 mi SSE 11.5 mph - N/A   Scattered Clouds
11:53 AM 78.1 °F 59.0 °F 52% 30.01 in 10.0 mi SSE 11.5 mph - N/A   Scattered Clouds
12:53 PM 79.0 °F 60.1 °F 52% 30.00 in 10.0 mi SSE 11.5 mph - N/A   Scattered Clouds
1:53 PM 78.1 °F 62.1 °F 58% 29.99 in 10.0 mi South 6.9 mph - N/A   Mostly Cloudy
2:53 PM 78.1 °F 62.1 °F 58% 29.97 in 10.0 mi South 9.2 mph - N/A   Mostly Cloudy
3:53 PM 77.0 °F 62.1 °F 60% 29.96 in 10.0 mi South 8.1 mph - N/A   Scattered Clouds
4:53 PM 77.0 °F 62.1 °F 60% 29.96 in 10.0 mi South 6.9 mph - N/A   Scattered Clouds
5:53 PM 75.9 °F 62.1 °F 62% 29.97 in 10.0 mi SSW 4.6 mph - N/A   Scattered Clouds
6:53 PM 75.0 °F 61.0 °F 62% 29.98 in 10.0 mi SSW 3.5 mph - N/A   Scattered Clouds
7:53 PM 75.0 °F 62.1 °F 64% 29.99 in 10.0 mi SSW 3.5 mph - N/A   Scattered Clouds
8:53 PM 75.0 °F 63.0 °F 66% 30.01 in 10.0 mi Calm Calm - N/A   Scattered Clouds
9:53 PM 73.9 °F 62.1 °F 66% 30.02 in 10.0 mi NNE 4.6 mph - N/A   Partly Cloudy
10:53 PM 73.0 °F 62.1 °F 68% 30.03 in 10.0 mi NE 4.6 mph - N/A   Partly Cloudy
11:53 PM 72.0 °F 62.1 °F 71% 30.01 in 10.0 mi Calm Calm - N/A   Scattered Clouds